Regional Weather Roundup
Issued by NWS

Home | Current Version | Previous Version | Text Only | Print | Product List | Glossary Off
Versions: 1 2 3 4 5 6 7 8 9 10 11 12 13 14 15 16 17 18 19 20 21 22 23 24 25 26 27

000
ASUS45 KSLC 260110
RWRUT

UTAH REGIONAL WEATHER ROUNDUP
NATIONAL WEATHER SERVICE SALT LAKE CITY UT
700 PM MDT SAT MAR 25 2017

UTZ001>011-023>025-260200-

NORTHERN UTAH

CITY           SKY/WX    TMP DP  RH WIND       PRES   REMARKS
BRIGHAM CITY     N/A     46  35  65 CALM      29.99S
HILL AFB       CLOUDY    41  37  87 S6        29.99S
LOGAN          CLOUDY    44  38  79 S3        29.98S
OGDEN          CLOUDY    42  39  89 S6        29.98S
SALT LAKE CITY MOCLDY    43  38  82 NW7       29.99S
WENDOVER       PTCLDY    50  35  56 S8        29.99S
HEBER CITY     CLOUDY    43  36  75 SW7       29.94R

$$

UTZ011>015-024>027-260200-

CENTRAL/NORTHEAST UTAH

CITY           SKY/WX    TMP DP  RH WIND       PRES   REMARKS
PROVO AIRPORT  LGT RAIN  43  37  81 NW9       30.00R
MOAB/CANYONLAN LGT RAIN  56  39  53 NW15      29.83R
DELTA          CLOUDY    41  39  93 NW6       29.99R
PRICE          CLOUDY    45  34  65 NW14      29.90R
RICHFIELD      CLOUDY    43  43 100 NE7       29.97R
ROOSEVELT      CLOUDY    48  37  66 W9        29.90S
VERNAL         CLOUDY    48  39  71 W6        29.89R

$$

UTZ013>016-019>022-027-260200-

SOUTHERN UTAH

CITY           SKY/WX    TMP DP  RH WIND       PRES   REMARKS
BRYCE CANYON   CLOUDY    39  32  76 VRB5      29.94F
CEDAR CITY     LGT RAIN  37  35  92 E8        29.98R WCI  31
MILFORD        CLOUDY    42  38  85 N8        29.99R
ST GEORGE      CLOUDY    56  40  55 W8        29.95R
HANKSVILLE     CLOUDY    52  37  58 N12       29.87F
KANAB          CLOUDY    48  36  61 W12G20    29.99
BLANDING       CLOUDY    47  31  53 NW7       29.99S

$$

REGIONAL REPORTS     COLORADO/ARIZONA

CITY           SKY/WX    TMP DP  RH WIND       PRES   REMARKS
CRAIG, CO      CLOUDY    52  28  39 SW12      29.88R
GRAND JUNCTION LGT RAIN  54  38  54 SW14      29.87R
RIFLE, CO      CLOUDY    53  31  42 W20       29.88R
MONTROSE, CO   CLOUDY    55  28  35 NW8       29.90R
CORTEZ, CO     CLOUDY    55  28  35 W16       29.87R
COLORADO CITY  CLOUDY    48  41  76 NW12      29.99R
PAGE, AZ       CLOUDY    57  38  48 W9G21     29.87R
GRAND CANYON   MOCLDY    47  31  53 W8G17     29.97R
KINGMAN, AZ    PTCLDY    65  21  18 W12       29.93S
FLAGSTAFF, AZ  MOCLDY    39  29  67 SW14      30.02R WCI  31

$$

REGIONAL REPORTS    NEVADA/IDAHO/WYOMING

CITY           SKY/WX    TMP DP  RH WIND       PRES   REMARKS
LAS VEGAS, NV  MOSUNNY   70  32  24 NW10      29.90F
ELY, NY        CLOUDY    43  30  60 N7        30.02R
ELKO, NV       CLOUDY    50  23  34 W8        30.00R
POCATELLO, ID  PTCLDY    50  27  40 SW22      29.96S
BURLEY, ID     CLEAR     49  25  39 W10G18    29.98R
FORT BRIDGER,  LGT RAIN  38  37  99 NW12      29.96R WCI  30
EVANSTON, WY   MIX PCPN  35  32  88 N6        29.96R WCI  30
ROCK SPRINGS,  LGT RAIN  41  35  79 N17       29.90R
KEMMERER, WY     N/A     34  32  93 W15       29.93  WCI  24

$$




USA.gov is the U.S. government's official web portal to all federal, state and local government web resources and services.